Track SNAP-3 EDDIE now! 10-day predictions SNAP-3 EDDIE is classified as:
1 40972U 15058J 26252.90735288 .00960971 46410-3 17420-2 0 9996 2 40972 64.7335 154.8812 0014028 279.7254 80.2327 16.01096011132375